Change the Weather History Date:

Sunday, March 30, 2014

  Actual Average Record
Temperature  
Mean Temperature 57 °F -  
Max Temperature 73 °F 55 °F 87 °F (1968)
Min Temperature 41 °F 31 °F 9 °F (1964)
Degree Days  
Heating Degree Days 8    
Growing Degree Days 7 (Base 50)    
Moisture  
Dew Point 33 °F    
Average Humidity 45    
Maximum Humidity 70    
Minimum Humidity 23    
Precipitation  
Precipitation 0.00 in - - ()
Sea Level Pressure  
Sea Level Pressure 29.89 in    
Wind  
Wind Speed 16 mph (South)    
Max Wind Speed 31 mph    
Max Gust Speed 40 mph    
Visibility 10 miles    
Events      
Averages and records for this station are not official NWS values.
T = Trace of Precipitation, MM = Missing Value Source: NWS Daily Summary

Daily Weather History Graph

Daily Weather History Graph

Search for Another Location

Airport or City:

Trip Planner

Search our weather history database for the weather conditions in past years. The results will help you decide how hot, cold, wet, or windy it might be!

Date:

Astronomy

Mar. 30, 2014 Rise Set
Actual Time 7:07 AM CDT 7:44 PM CDT
Civil Twilight 6:39 AM CDT 8:12 PM CDT
Nautical Twilight 6:06 AM CDT 8:45 PM CDT
Astronomical Twilight 5:32 AM CDT 9:19 PM CDT
Moon 6:54 AM CDT 7:58 PM CDT
Length of Visible Light 13h 32m
Length of Day
12h 36m
Waning Crescent, 0% of the Moon is Illuminated
Mar 30
Waning Crescent
Mar 30
New
Apr 7
First Quarter
Apr 15
Full
Apr 22
Last Quarter

Hourly Weather History & Observations

Time (CDT) Temp. Windchill Dew Point Humidity Pressure Visibility Wind Dir Wind Speed Gust Speed Precip Events Conditions
12:15 AM 42.8 °F 37.0 °F 28.4 °F 57% 30.10 in 10.0 mi South 10.4 mph - N/A   Clear
12:35 AM 42.8 °F 35.8 °F 28.4 °F 57% 30.09 in 10.0 mi South 13.8 mph - N/A   Clear
1:15 AM 41.0 °F 34.7 °F 30.2 °F 65% 30.08 in 10.0 mi South 10.4 mph - N/A   Clear
1:35 AM 41.0 °F 33.9 °F 30.2 °F 65% 30.07 in 10.0 mi South 12.7 mph - N/A   Clear
1:55 AM 41.0 °F 34.7 °F 30.2 °F 65% 30.07 in 10.0 mi South 10.4 mph - N/A   Clear
2:15 AM 41.0 °F 34.3 °F 30.2 °F 65% 30.06 in 10.0 mi South 11.5 mph - N/A   Clear
2:35 AM 41.0 °F 34.7 °F 30.2 °F 65% 30.05 in 10.0 mi South 10.4 mph - N/A   Clear
2:55 AM 41.0 °F 34.7 °F 30.2 °F 65% 30.05 in 10.0 mi South 10.4 mph - N/A   Clear
3:15 AM 41.0 °F 34.3 °F 30.2 °F 65% 30.04 in 10.0 mi South 11.5 mph - N/A   Clear
3:35 AM 42.8 °F 35.1 °F 30.2 °F 61% 30.03 in 10.0 mi South 16.1 mph - N/A   Clear
3:55 AM 42.8 °F 35.1 °F 30.2 °F 61% 30.02 in 10.0 mi South 16.1 mph - N/A   Clear
4:15 AM 42.8 °F 34.8 °F 30.2 °F 61% 30.02 in 10.0 mi South 17.3 mph 25.3 mph N/A   Clear
4:35 AM 42.8 °F 35.1 °F 30.2 °F 61% 30.01 in 10.0 mi South 16.1 mph - N/A   Clear
4:55 AM 42.8 °F 36.2 °F 30.2 °F 61% 30.01 in 10.0 mi South 12.7 mph 21.9 mph N/A   Clear
5:15 AM 41.0 °F 32.8 °F 32.0 °F 70% 30.01 in 10.0 mi South 16.1 mph - N/A   Clear
5:35 AM 41.0 °F 33.5 °F 32.0 °F 70% 30.00 in 10.0 mi South 13.8 mph 20.7 mph N/A   Clear
5:55 AM 41.0 °F 33.5 °F 32.0 °F 70% 29.99 in 10.0 mi South 13.8 mph 19.6 mph N/A   Clear
6:15 AM 41.0 °F 33.5 °F 32.0 °F 70% 29.99 in 10.0 mi South 13.8 mph - N/A   Clear
6:35 AM 41.0 °F 33.5 °F 32.0 °F 70% 29.99 in 10.0 mi South 13.8 mph - N/A   Clear
6:55 AM 41.0 °F 33.5 °F 32.0 °F 70% 29.99 in 10.0 mi South 13.8 mph - N/A   Clear
7:15 AM 41.0 °F 33.9 °F 32.0 °F 70% 29.99 in 8.0 mi South 12.7 mph - N/A   Clear
7:35 AM 42.8 °F 36.6 °F 32.0 °F 66% 29.99 in 7.0 mi South 11.5 mph - N/A   Clear
7:55 AM 42.8 °F 36.6 °F 32.0 °F 66% 29.99 in 8.0 mi South 11.5 mph - N/A   Clear
8:15 AM 44.6 °F 37.4 °F 33.8 °F 66% 29.99 in 8.0 mi South 16.1 mph - N/A   Clear
8:35 AM 46.4 °F 39.8 °F 33.8 °F 62% 29.99 in 9.0 mi South 16.1 mph 24.2 mph N/A   Clear
8:55 AM 48.2 °F - 33.8 °F 58% 29.98 in 9.0 mi South 17.3 mph 25.3 mph N/A   Clear
9:15 AM 50.0 °F - 33.8 °F 54% 29.98 in 10.0 mi South 20.7 mph 27.6 mph N/A   Clear
9:35 AM 51.8 °F - 33.8 °F 50% 29.97 in 10.0 mi South 23.0 mph 29.9 mph N/A   Clear
9:55 AM 53.6 °F - 33.8 °F 47% 29.97 in 10.0 mi South 21.9 mph 29.9 mph N/A   Clear
10:15 AM 53.6 °F - 33.8 °F 47% 29.97 in 10.0 mi SSW 23.0 mph 29.9 mph N/A   Clear
10:35 AM 53.6 °F - 33.8 °F 47% 29.96 in 10.0 mi SSW 26.5 mph 33.4 mph N/A   Clear
10:55 AM 55.4 °F - 35.6 °F 47% 29.95 in 10.0 mi South 23.0 mph 29.9 mph N/A   Clear
11:15 AM 59.0 °F - 35.6 °F 42% 29.94 in 10.0 mi South 21.9 mph - N/A   Clear
11:35 AM 60.8 °F - 33.8 °F 36% 29.92 in 10.0 mi South 27.6 mph 38.0 mph N/A   Clear
11:55 AM 62.6 °F - 33.8 °F 34% 29.91 in 10.0 mi SSW 29.9 mph 36.8 mph N/A   Clear
12:15 PM 62.6 °F - 33.8 °F 34% 29.91 in 10.0 mi South 23.0 mph 35.7 mph N/A   Clear
12:35 PM 62.6 °F - 33.8 °F 34% 29.90 in 10.0 mi South 21.9 mph 33.4 mph N/A   Clear
12:55 PM 64.4 °F - 33.8 °F 32% 29.89 in 10.0 mi South 19.6 mph 31.1 mph N/A   Clear
1:15 PM 64.4 °F - 33.8 °F 32% 29.88 in 10.0 mi South 24.2 mph 31.1 mph N/A   Clear
1:35 PM 68.0 °F - 33.8 °F 28% 29.87 in 10.0 mi South 23.0 mph 33.4 mph N/A   Clear
1:55 PM 68.0 °F - 33.8 °F 28% 29.85 in 10.0 mi South 23.0 mph 35.7 mph N/A   Clear
2:15 PM 69.8 °F - 33.8 °F 27% 29.83 in 10.0 mi South 26.5 mph 34.5 mph N/A   Clear
2:35 PM 69.8 °F - 33.8 °F 27% 29.81 in 10.0 mi SSW 23.0 mph 32.2 mph N/A   Clear
2:55 PM 71.6 °F - 33.8 °F 25% 29.80 in 10.0 mi South 31.1 mph 39.1 mph N/A   Clear
3:15 PM 71.6 °F - 33.8 °F 25% 29.79 in 10.0 mi SSW 27.6 mph 34.5 mph N/A   Clear
3:35 PM 73.4 °F - 33.8 °F 23% 29.77 in 10.0 mi South 29.9 mph 38.0 mph N/A   Clear
3:55 PM 73.4 °F - 33.8 °F 23% 29.76 in 10.0 mi South 29.9 mph 40.3 mph N/A   Clear
4:15 PM 73.4 °F - 33.8 °F 23% 29.76 in 10.0 mi South 25.3 mph 34.5 mph N/A   Clear
4:35 PM 73.4 °F - 33.8 °F 23% 29.75 in 10.0 mi South 26.5 mph 34.5 mph N/A   Clear
4:55 PM 73.4 °F - 35.6 °F 25% 29.74 in 10.0 mi South 28.8 mph 35.7 mph N/A   Clear
5:15 PM 73.4 °F - 35.6 °F 25% 29.74 in 10.0 mi South 19.6 mph 38.0 mph N/A   Clear
5:35 PM 73.4 °F - 35.6 °F 25% 29.74 in 10.0 mi SSW 21.9 mph 32.2 mph N/A   Clear
5:55 PM 73.4 °F - 35.6 °F 25% 29.73 in 10.0 mi South 21.9 mph - N/A   Clear
6:15 PM 71.6 °F - 35.6 °F 27% 29.73 in 10.0 mi SSW 24.2 mph 32.2 mph N/A   Clear
6:35 PM 71.6 °F - 35.6 °F 27% 29.73 in 10.0 mi South 19.6 mph 33.4 mph N/A   Clear
6:55 PM 69.8 °F - 35.6 °F 28% 29.74 in 10.0 mi South 15.0 mph 24.2 mph N/A   Clear
7:15 PM 68.0 °F - 35.6 °F 30% 29.74 in 10.0 mi SSW 13.8 mph 24.2 mph N/A   Clear
7:35 PM 66.2 °F - 35.6 °F 32% 29.74 in 10.0 mi South 13.8 mph 19.6 mph N/A   Clear
7:55 PM 66.2 °F - 35.6 °F 32% 29.75 in 10.0 mi South 12.7 mph 21.9 mph N/A   Clear
8:15 PM 64.4 °F - 35.6 °F 34% 29.74 in 10.0 mi South 13.8 mph 21.9 mph N/A   Clear
8:35 PM 64.4 °F - 35.6 °F 34% 29.75 in 10.0 mi South 13.8 mph 21.9 mph N/A   Clear
8:55 PM 62.6 °F - 35.6 °F 37% 29.75 in 10.0 mi South 15.0 mph 21.9 mph N/A   Clear
9:15 PM 62.6 °F - 35.6 °F 37% 29.75 in 10.0 mi South 15.0 mph - N/A   Clear
9:35 PM 62.6 °F - 35.6 °F 37% 29.75 in 10.0 mi South 15.0 mph - N/A   Clear
9:55 PM 62.6 °F - 35.6 °F 37% 29.75 in 10.0 mi South 15.0 mph - N/A   Clear
10:15 PM 62.6 °F - 35.6 °F 37% 29.75 in 10.0 mi South 16.1 mph 23.0 mph N/A   Clear
10:35 PM 62.6 °F - 35.6 °F 37% 29.74 in 10.0 mi South 17.3 mph - N/A   Clear
10:55 PM 60.8 °F - 35.6 °F 39% 29.74 in 10.0 mi SSE 11.5 mph - N/A   Clear
11:15 PM 60.8 °F - 35.6 °F 39% 29.73 in 10.0 mi South 13.8 mph 20.7 mph N/A   Clear
11:35 PM 60.8 °F - 35.6 °F 39% 29.72 in 10.0 mi South 16.1 mph - N/A   Clear
11:55 PM 60.8 °F - 35.6 °F 39% 29.71 in 10.0 mi South 17.3 mph 24.2 mph N/A   Clear